This is the latest recevied weather packets stored in our database for station/object 4S6DRJ-13. If no packets are shown the sender has not sent any weather packets the latest 10 day(s).
| Time | Temp. | Humidity | Pressure | Rain* | Wind** | Luminosity | Snow |
|---|---|---|---|---|---|---|---|
| 1787936378 | 27.78° C | 85% | 1011.5 hPa | 0 mm | 1.34 m/s, 278° | 0 W/m² | - |
| 1787936308 | 27.78° C | 85% | 1011.4 hPa | 0 mm | 0.89 m/s, 180° | 0 W/m² | - |
| 1787936247 | 27.78° C | 85% | 1011.5 hPa | 0 mm | 0 m/s | 0 W/m² | - |
| 1787936186 | 27.78° C | 85% | 1011.5 hPa | 0 mm | 0.89 m/s, 242° | 0 W/m² | - |
| 1787936126 | 27.78° C | 85% | 1011.4 hPa | 0 mm | 0.45 m/s, 226° | 0 W/m² | - |
| 1787936064 | 27.78° C | 85% | 1011.4 hPa | 0 mm | 0.45 m/s, 240° | 0 W/m² | - |
| 1787936003 | 27.78° C | 84% | 1011.6 hPa | 0 mm | 0.89 m/s, 152° | 0 W/m² | - |
| 1787935942 | 27.78° C | 84% | 1011.4 hPa | 0 mm | 2.24 m/s, 222° | 0 W/m² | - |
| 1787935881 | 27.78° C | 84% | 1011.2 hPa | 0 mm | 0.45 m/s, 215° | 0 W/m² | - |
| 1787935820 | 27.78° C | 84% | 1011.4 hPa | 0 mm | 1.34 m/s, 247° | 0 W/m² | - |
| 1787935759 | 27.78° C | 84% | 1011.4 hPa | 0 mm | 0.89 m/s, 252° | 0 W/m² | - |
| 1787935698 | 27.78° C | 84% | 1011.4 hPa | 0 mm | 0.89 m/s, 181° | 0 W/m² | - |
| 1787935637 | 27.78° C | 84% | 1011.5 hPa | 0 mm | 1.34 m/s, 208° | 0 W/m² | - |
| 1787935576 | 27.78° C | 84% | 1011.5 hPa | 0 mm | 1.34 m/s, 231° | 0 W/m² | - |
| 1787935515 | 27.78° C | 84% | 1011.2 hPa | 0 mm | 1.34 m/s, 210° | 0 W/m² | - |
| 1787935454 | 27.78° C | 84% | 1011.3 hPa | 0 mm | 0.89 m/s, 185° | 0 W/m² | - |
| 1787935393 | 27.78° C | 84% | 1011.3 hPa | 0 mm | 0.45 m/s, 239° | 0 W/m² | - |
| 1787935333 | 27.78° C | 84% | 1011.4 hPa | 0 mm | 1.34 m/s, 235° | 0 W/m² | - |
| 1787935271 | 27.78° C | 84% | 1011.4 hPa | 0 mm | 0.89 m/s, 255° | 0 W/m² | - |
| 1787935211 | 27.78° C | 84% | 1011.3 hPa | 0 mm | 1.79 m/s, 224° | 0 W/m² | - |
| 1787935149 | 27.78° C | 84% | 1011.2 hPa | 0 mm | 0.89 m/s, 210° | 0 W/m² | - |
| 1787935089 | 27.78° C | 84% | 1011.1 hPa | 0 mm | 1.79 m/s, 172° | 0 W/m² | - |
| 1787935027 | 27.78° C | 84% | 1011.4 hPa | 0 mm | 1.34 m/s, 274° | 0 W/m² | - |
| 1787934966 | 27.78° C | 84% | 1011.2 hPa | 0 mm | 0.45 m/s, 240° | 0 W/m² | - |
| 1787934905 | 27.78° C | 84% | 1011.3 hPa | 0 mm | 0.89 m/s, 219° | 0 W/m² | - |
* Rain latest hour (hover to see other rain measurements)
** Current wind speed in m/s (hover to see current wind gust speed)